TimeMDT,TemperatureF,Dew PointF,Humidity,Sea Level PressureIn,VisibilityMPH,Wind Direction,Wind SpeedMPH,Gust SpeedMPH,PrecipitationIn,Events,Conditions,WindDirDegrees,DateUTC
12:53 AM,55.9,37.9,51,29.63,10.0,SW,15.0,-,N/A,,Clear,220,2012-10-16 06:53:00
1:53 AM,57.0,37.0,47,29.58,10.0,SSW,16.1,-,N/A,,Partly Cloudy,210,2012-10-16 07:53:00
2:53 AM,54.0,37.9,55,29.55,10.0,SSW,13.8,-,N/A,,Clear,200,2012-10-16 08:53:00
3:53 AM,53.6,39.2,58,29.54,10.0,South,13.8,-,N/A,,Clear,190,2012-10-16 09:53:00
4:53 AM,59.0,39.9,49,29.43,10.0,SW,19.6,28.8,N/A,,Clear,220,2012-10-16 10:53:00
5:53 AM,60.8,41.0,48,29.45,10.0,SW,24.2,32.2,N/A,,Clear,220,2012-10-16 11:53:00
6:53 AM,60.1,42.1,51,29.39,10.0,SSW,24.2,29.9,N/A,,Clear,210,2012-10-16 12:53:00
7:53 AM,57.0,45.0,64,29.38,10.0,SSW,15.0,-,N/A,,Partly Cloudy,200,2012-10-16 13:53:00
8:53 AM,55.9,46.0,69,29.41,10.0,SW,18.4,26.5,N/A,,Overcast,220,2012-10-16 14:53:00
9:15 AM,48.2,44.6,87,29.48,1.5,NW,19.6,42.6,0.05,Rain,Heavy Rain,310,2012-10-16 15:15:00
9:26 AM,48.2,44.6,87,29.47,3.0,WNW,17.3,-,0.12,Rain,Heavy Rain,290,2012-10-16 15:26:00
9:53 AM,48.9,46.0,90,29.40,10.0,South,17.3,27.6,0.16,Rain,Light Rain,180,2012-10-16 15:53:00
10:53 AM,53.1,46.0,77,29.36,10.0,SSW,15.0,-,N/A,,Partly Cloudy,200,2012-10-16 16:53:00
11:53 AM,54.0,44.1,69,29.35,10.0,WSW,17.3,28.8,0.01,,Partly Cloudy,240,2012-10-16 17:53:00
12:53 PM,57.9,39.9,51,29.37,10.0,WSW,27.6,36.8,N/A,,Partly Cloudy,240,2012-10-16 18:53:00
1:53 PM,51.1,35.1,54,29.39,10.0,WSW,38.0,54.1,N/A,,Overcast,250,2012-10-16 19:53:00
2:53 PM,57.9,28.9,33,29.41,10.0,WSW,38.0,43.7,N/A,,Mostly Cloudy,250,2012-10-16 20:53:00
3:53 PM,53.1,26.1,35,29.48,10.0,West,26.5,39.1,N/A,,Mostly Cloudy,260,2012-10-16 21:53:00
4:53 PM,53.1,23.0,31,29.50,10.0,West,31.1,47.2,N/A,,Partly Cloudy,260,2012-10-16 22:53:00
5:53 PM,48.9,25.0,39,29.54,10.0,WSW,31.1,44.9,N/A,,Clear,250,2012-10-16 23:53:00
6:53 PM,46.0,27.0,47,29.60,10.0,WSW,24.2,35.7,N/A,,Overcast,250,2012-10-17 00:53:00
7:53 PM,44.1,28.0,53,29.67,10.0,WSW,21.9,29.9,N/A,,Scattered Clouds,250,2012-10-17 01:53:00
8:53 PM,44.1,28.0,53,29.72,10.0,West,24.2,34.5,N/A,,Scattered Clouds,260,2012-10-17 02:53:00
9:53 PM,43.0,28.0,56,29.77,10.0,WSW,19.6,-,N/A,,Clear,250,2012-10-17 03:53:00
10:53 PM,39.9,26.1,58,29.80,10.0,WSW,13.8,-,N/A,,Clear,240,2012-10-17 04:53:00
11:53 PM,37.9,23.0,55,29.82,10.0,WSW,13.8,-,N/A,,Clear,240,2012-10-17 05:53:00